#timestamp,LO_Frequency,Hit,StdDev 
1543680015.8,286047000.1,N
1543680035.6,286047002.6,N
1543680055.5,286047001.3,N
1543680075.3,286047001.6,N
1543680095.1,286047003.8,Y
1543680115.9,286047002.8,P
1543680135.7,286046999.9,N
1543680155.5,286047001.1,N
1543680175.4,286047002.8,N
1543680195.2,286046999.9,N
1543680215.1,286047002.8,N
1543680216.0,286047002.8,N
1543680235.8,286047001.8,N
1543680255.6,286047001.3,N
1543680275.5,286047001.3,N
1543680295.3,286047002.1,N
1543680315.1,286047001.8,N
1543680335.9,286047001.6,N
1543680355.7,286047001.5,N
1543680375.6,286047001.8,N
1543680395.4,286047002.7,Y
1543680415.2,286047001.1,P
1543680435.1,286047000.7,N
1543680436.0,286047000.7,N
1543680455.8,286047001.1,N
1543680475.7,286046998.7,Y
1543680495.5,286046997.2,P
1543680515.3,286046996.8,N
1543680535.2,286046997.1,N
1543680555.9,286046997.9,N
1543680575.7,286046995.4,N
1543680595.6,286046994.9,N
1543680615.4,286046995.2,N
1543680635.2,286046997.6,N
1543680655.1,286046997.1,N
1543680656.0,286046997.1,N
1543680675.8,286047006.3,Y
1543680695.7,286047010.9,P
1543680715.5,286047012.3,N
1543680735.3,286047007.7,N
1543680755.2,286047006.5,N
1543680775.0,286047005.9,N
1543680775.9,286047005.9,N
1543680795.8,286047001.4,N
1543680815.6,286047002.1,N
1543680835.4,286047002.6,N
1543680855.3,286047001.8,N
1543680875.1,286047003.7,N
1543680895.8,286047003.0,N
1543680915.7,286047003.3,N
1543680935.5,286047004.4,N
1543680955.3,286047002.2,N
1543680975.2,286047000.2,N
1543680995.0,286047004.4,N
1543680995.9,286047004.4,N
1543681015.8,286047001.9,N
1543681035.6,286047003.8,N
1543681055.4,286047005.9,N
1543681075.3,286047003.6,N
1543681095.1,286047003.9,N
1543681115.9,286047002.2,N
1543681135.7,286047002.4,N
1543681155.5,286047000.9,N
1543681175.4,286047002.4,N
1543681195.2,286047002.4,N
1543681215.0,286047002.7,N
1543681216.0,286047002.7,N
1543681235.8,286047002.5,N
1543681255.6,286047002.8,N
1543681275.5,286047000.7,N
1543681295.3,286047000.0,N
1543681315.1,286047000.3,N
1543681335.9,286047002.8,N
1543681355.7,286047002.4,N
1543681375.5,286047001.8,N
1543681395.4,286047001.5,N
1543681415.2,286047002.5,N
1543681435.1,286046999.8,N
1543681436.0,286046999.8,N
1543681455.8,286046999.9,N
1543681475.6,286047001.0,N
1543681495.5,286047001.1,N
1543681515.3,286046998.7,N
1543681535.1,286046999.0,N
1543681555.9,286046998.8,N
1543681575.7,286047000.6,N
1543681595.6,286047000.3,N
1543681615.4,286047000.7,N
1543681635.2,286046998.7,N
1543681655.1,286046998.5,N
1543681656.0,286046998.5,N
1543681675.8,286046998.1,N
1543681695.7,286047000.3,N
1543681715.5,286047000.7,N
1543681735.3,286046998.6,N
1543681755.2,286046998.3,N
1543681775.0,286046998.5,N
1543681775.9,286046998.5,N
1543681795.7,286047001.2,N
1543681815.6,286046999.9,N
1543681835.4,286047002.7,N
1543681855.3,286047002.3,N
1543681875.1,286047001.7,N
1543681876.0,286047001.7,N
1543681895.8,286047003.9,N
1543681915.7,286047002.6,N
1543681935.5,286047000.1,N
1543681955.4,286047002.8,N
1543681975.2,286047000.0,N
1543681995.0,286047002.0,N
1543681995.9,286047002.0,N
1543682015.8,286047001.8,N
1543682035.6,286047001.8,N
1543682055.4,286047001.9,N
1543682075.3,286047004.0,N
1543682095.1,286047004.3,N
1543682115.9,286047002.8,N
1543682135.7,286047001.6,N
1543682155.5,286047000.4,N
1543682175.4,286047011.9,Y
1543682195.2,286047001.0,P
1543682215.1,286047000.9,P
1543682216.0,286047000.9,P
1543682235.8,286047001.2,Y
1543682255.6,286046998.2,P
1543682275.5,286047002.4,N
1543682295.3,286047000.5,N
1543682315.2,286047002.8,N
1543682335.9,286047002.7,N
1543682355.7,286047000.9,N
1543682375.6,286047000.0,N
1543682395.4,286047000.2,N
1543682415.2,286047002.5,N
1543682435.1,286047002.7,N
1543682436.0,286047002.7,N
1543682455.8,286047002.7,N
1543682475.7,286047000.5,N
1543682495.5,286047000.4,N
1543682515.3,286047000.4,N
1543682535.2,286046998.3,N
1543682555.9,286046998.8,N
1543682575.7,286046998.8,N
1543682595.6,286046998.3,N
1543682615.4,286047000.9,N
1543682635.3,286047001.1,N
1543682655.1,286046998.6,N
1543682656.0,286046998.6,N
1543682675.8,286046999.6,N
1543682695.7,286046998.1,N
1543682715.5,286046998.4,N
1543682735.3,286046998.1,N
1543682755.2,286046998.8,N
1543682775.0,286046999.0,N
1543682775.9,286046999.0,N
1543682795.8,286046998.2,N
1543682815.6,286047001.2,N
1543682835.4,286046998.5,N
1543682855.3,286046998.6,N
1543682875.1,286046998.6,N
1543682895.8,286047001.2,N
1543682915.7,286046998.6,N
1543682935.5,286047000.0,N
1543682955.4,286047000.5,N
1543682975.2,286046998.6,N
1543682995.0,286046996.5,N
1543682995.9,286046996.5,N
1543683015.8,286046999.2,N
1543683035.6,286046997.0,N
1543683055.4,286046998.8,N
1543683075.3,286046999.4,N
1543683095.1,286046998.7,N
1543683115.9,286047000.9,N
1543683135.7,286047000.7,N
1543683155.5,286047000.0,N
1543683175.4,286046998.1,N
1543683195.2,286046998.6,N
1543683215.0,286046999.1,N
1543683215.9,286046999.1,N
1543683235.8,286046998.3,N
1543683255.6,286046998.8,N
1543683275.5,286047001.2,N
1543683295.3,286046998.7,N
1543683315.1,286046998.4,N
1543683335.9,286046998.2,N
1543683355.7,286047001.2,N
1543683375.5,286046998.8,N
1543683395.4,286046999.5,N
1543683415.2,286046996.8,N
1543683435.1,286046997.4,N
1543683436.0,286046997.4,N
1543683455.8,286046999.1,N
1543683475.6,286046999.1,N
1543683495.5,286046999.5,N
1543683515.3,286046996.8,N
1543683535.2,286046999.5,N
1543683555.9,286046999.3,N
1543683575.7,286046998.8,N
1543683595.6,286047001.0,N
